• en Suisse
  • Liste des pays
  • À 7 jours
  • Température de l'eau
  • Carte satellitaire
  • Carte météo
  • Widgets météo
  • user-avatar
    Se connecter

    Météo par heure à Lyubyacha

    Ce jour, 14 Novembre, Mercredi

    Heure Température Précipitation Vent Pression Humidité
    00:00 -1°C° 0.4 mm 7 m/s 750 mmHg 71%
    01:00 -1°C° 0.4 mm 7 m/s 750 mmHg 73%
    02:00 0°C° 0 mm 5 m/s 749 mmHg 77%
    03:00 0°C° 1.5 mm 5 m/s 748 mmHg 81%
    04:00 0°C° 1.5 mm 5 m/s 748 mmHg 85%
    05:00 -1°C° 1.5 mm 5 m/s 747 mmHg 89%
    06:00 0°C° 1.4 mm 5 m/s 747 mmHg 91%
    07:00 0°C° 1.4 mm 4 m/s 747 mmHg 93%
    08:00 0°C° 0 mm 4 m/s 747 mmHg 94%
    09:00 0°C° 0.4 mm 4 m/s 747 mmHg 95%
    10:00 +2°C° 0.4 mm 3 m/s 747 mmHg 96%
    11:00 +3°C° 0.4 mm 3 m/s 747 mmHg 96%
    12:00 +3°C° 0.7 mm 3 m/s 747 mmHg 96%
    13:00 +3°C° 0.7 mm 3 m/s 747 mmHg 95%
    14:00 +3°C° 0 mm 3 m/s 747 mmHg 95%
    15:00 +3°C° 0.7 mm 3 m/s 748 mmHg 94%
    16:00 +3°C° 0.7 mm 3 m/s 748 mmHg 93%
    17:00 +3°C° 0.7 mm 4 m/s 749 mmHg 92%
    18:00 +3°C° 0.4 mm 4 m/s 749 mmHg 92%
    19:00 +3°C° 0.4 mm 4 m/s 749 mmHg 92%
    20:00 +2°C° 0.4 mm 3 m/s 750 mmHg 92%
    21:00 +2°C° 0.4 mm 3 m/s 750 mmHg 92%
    22:00 +2°C° 0.4 mm 3 m/s 750 mmHg 93%
    23:00 +2°C° 0.4 mm 3 m/s 751 mmHg 93%

    Demain, 15 Novembre, Jeudi

    Heure Température Précipitation Vent Pression Humidité
    00:00 +2°C° 0.5 mm 3 m/s 751 mmHg 93%
    01:00 +2°C° 0.5 mm 3 m/s 751 mmHg 94%
    02:00 +2°C° 0.5 mm 3 m/s 752 mmHg 94%
    03:00 +2°C° 0.3 mm 3 m/s 752 mmHg 94%
    04:00 +1°C° 0.3 mm 3 m/s 752 mmHg 94%
    05:00 +1°C° 0.3 mm 3 m/s 753 mmHg 94%
    06:00 +1°C° 0.2 mm 3 m/s 753 mmHg 93%
    07:00 +1°C° 0.2 mm 3 m/s 753 mmHg 92%
    08:00 0°C° 0.2 mm 3 m/s 754 mmHg 92%
    09:00 0°C° 0 mm 3 m/s 754 mmHg 90%
    10:00 0°C° 0 mm 3 m/s 755 mmHg 89%
    11:00 0°C° 0 mm 3 m/s 755 mmHg 87%
    12:00 0°C° 0 mm 3 m/s 756 mmHg 87%
    13:00 0°C° 0 mm 3 m/s 756 mmHg 86%
    14:00 0°C° 0 mm 3 m/s 757 mmHg 86%
    15:00 0°C° 0 mm 3 m/s 757 mmHg 88%
    16:00 +1°C° 0 mm 2 m/s 757 mmHg 89%
    17:00 +1°C° 0 mm 2 m/s 758 mmHg 91%
    18:00 +1°C° 0 mm 2 m/s 758 mmHg 92%
    19:00 +1°C° 0 mm 2 m/s 759 mmHg 92%
    20:00 +1°C° 0 mm 2 m/s 759 mmHg 93%
    21:00 +1°C° 0 mm 2 m/s 760 mmHg 93%
    22:00 +1°C° 0 mm 2 m/s 760 mmHg 94%
    23:00 +1°C° 0 mm 2 m/s 760 mmHg 94%

    Après-demain, 16 Novembre, Vendredi

    Heure Température Précipitation Vent Pression Humidité
    00:00 +1°C° 0 mm 2 m/s 761 mmHg 94%
    01:00 +1°C° 0 mm 2 m/s 761 mmHg 94%
    02:00 +1°C° 0 mm 2 m/s 761 mmHg 94%
    03:00 -1°C° 0 mm 2 m/s 762 mmHg 94%
    04:00 -1°C° 0 mm 2 m/s 762 mmHg 95%
    05:00 -2°C° 0 mm 2 m/s 762 mmHg 95%
    06:00 -2°C° 0 mm 2 m/s 762 mmHg 95%
    07:00 -2°C° 0 mm 2 m/s 763 mmHg 95%
    08:00 -2°C° 0 mm 2 m/s 763 mmHg 95%
    09:00 -2°C° 0 mm 2 m/s 763 mmHg 92%
    10:00 -1°C° 0 mm 2 m/s 763 mmHg 89%
    11:00 +1°C° 0 mm 2 m/s 764 mmHg 86%
    12:00 +1°C° 0 mm 2 m/s 764 mmHg 84%
    13:00 +1°C° 0 mm 2 m/s 764 mmHg 83%
    14:00 +2°C° 0 mm 2 m/s 764 mmHg 81%
    15:00 +1°C° 0 mm 2 m/s 764 mmHg 84%
    16:00 -1°C° 0 mm 2 m/s 764 mmHg 87%
    17:00 -2°C° 0 mm 2 m/s 764 mmHg 90%
    18:00 -2°C° 0 mm 2 m/s 764 mmHg 89%
    19:00 -3°C° 0 mm 2 m/s 764 mmHg 88%
    20:00 -3°C° 0 mm 2 m/s 764 mmHg 87%
    21:00 -3°C° 0 mm 2 m/s 764 mmHg 86%
    22:00 -3°C° 0 mm 2 m/s 765 mmHg 84%
    23:00 -4°C° 0 mm 2 m/s 765 mmHg 82%

    17 Novembre, Samedi

    Heure Température Précipitation Vent Pression Humidité
    00:00 -4°C° 0 mm 2 m/s 765 mmHg 80%
    01:00 -2°C° 0 mm 1 m/s 765 mmHg 79%
    02:00 -2°C° 0 mm 1 m/s 765 mmHg 77%
    03:00 -2°C° 0 mm 1 m/s 765 mmHg 75%
    04:00 -2°C° 0 mm 1 m/s 765 mmHg 73%
    05:00 -2°C° 0 mm 1 m/s 764 mmHg 71%
    06:00 -2°C° 0 mm 1 m/s 764 mmHg 70%
    07:00 -2°C° 0 mm 1 m/s 764 mmHg 68%
    08:00 -2°C° 0 mm 1 m/s 764 mmHg 67%
    09:00 -1°C° 0 mm 1 m/s 764 mmHg 62%
    10:00 0°C° 0 mm 1 m/s 764 mmHg 57%
    11:00 +1°C° 0 mm 1 m/s 764 mmHg 53%
    12:00 +2°C° 0 mm 1 m/s 763 mmHg 53%
    13:00 +2°C° 0 mm 1 m/s 763 mmHg 53%
    14:00 +2°C° 0 mm 1 m/s 762 mmHg 53%
    15:00 +2°C° 0 mm 1 m/s 762 mmHg 56%
    16:00 +1°C° 0 mm 1 m/s 762 mmHg 60%
    17:00 0°C° 0 mm 1 m/s 761 mmHg 64%
    18:00 -2°C° 0 mm 2 m/s 761 mmHg 65%
    19:00 -2°C° 0 mm 2 m/s 761 mmHg 67%
    20:00 -2°C° 0 mm 2 m/s 760 mmHg 69%
    21:00 -1°C° 0 mm 2 m/s 760 mmHg 72%
    22:00 -1°C° 0 mm 2 m/s 759 mmHg 75%
    23:00 -1°C° 0 mm 3 m/s 759 mmHg 78%

    18 Novembre, Dimanche

    Heure Température Précipitation Vent Pression Humidité
    00:00 -1°C° 0 mm 3 m/s 758 mmHg 81%
    01:00 -1°C° 0 mm 3 m/s 758 mmHg 85%
    02:00 -1°C° 0 mm 3 m/s 757 mmHg 89%
    03:00 -2°C° 0 mm 4 m/s 756 mmHg 90%
    04:00 -1°C° 0 mm 4 m/s 756 mmHg 92%
    05:00 -1°C° 0 mm 4 m/s 755 mmHg 93%
    06:00 -1°C° 0 mm 4 m/s 754 mmHg 93%
    07:00 0°C° 0 mm 4 m/s 754 mmHg 93%
    08:00 0°C° 0 mm 4 m/s 753 mmHg 93%
    09:00 0°C° 0.1 mm 4 m/s 753 mmHg 92%
    10:00 0°C° 0.1 mm 4 m/s 752 mmHg 91%
    11:00 0°C° 0.1 mm 4 m/s 752 mmHg 91%
    12:00 +1°C° 0.1 mm 4 m/s 752 mmHg 89%
    13:00 +1°C° 0.1 mm 4 m/s 751 mmHg 87%
    14:00 +1°C° 0.1 mm 4 m/s 751 mmHg 84%
    15:00 +1°C° 0.1 mm 4 m/s 751 mmHg 86%
    16:00 0°C° 0.1 mm 5 m/s 750 mmHg 87%
    17:00 0°C° 0.1 mm 5 m/s 750 mmHg 88%
    18:00 0°C° 0 mm 5 m/s 750 mmHg 87%
    19:00 -1°C° 0 mm 5 m/s 750 mmHg 87%
    20:00 -1°C° 0 mm 5 m/s 750 mmHg 87%
    21:00 -1°C° 0.2 mm 5 m/s 749 mmHg 87%
    22:00 0°C° 0.2 mm 5 m/s 749 mmHg 87%
    23:00 0°C° 0.2 mm 5 m/s 749 mmHg 88%

    19 Novembre, Lundi

    Heure Température Précipitation Vent Pression Humidité
    00:00 0°C° 0.3 mm 5 m/s 748 mmHg 88%
    01:00 0°C° 0.3 mm 5 m/s 748 mmHg 89%
    02:00 0°C° 0.3 mm 5 m/s 748 mmHg 90%
    03:00 0°C° 0.1 mm 5 m/s 748 mmHg 90%
    04:00 0°C° 0.1 mm 5 m/s 748 mmHg 90%
    05:00 0°C° 0.1 mm 5 m/s 748 mmHg 90%
    06:00 0°C° 0.2 mm 5 m/s 748 mmHg 90%
    07:00 0°C° 0.2 mm 5 m/s 748 mmHg 90%
    08:00 0°C° 0.2 mm 5 m/s 748 mmHg 89%
    09:00 0°C° 0.1 mm 5 m/s 748 mmHg 89%
    10:00 0°C° 0.1 mm 5 m/s 749 mmHg 88%
    11:00 -1°C° 0.1 mm 6 m/s 749 mmHg 87%
    12:00 -1°C° 0.1 mm 6 m/s 749 mmHg 87%
    13:00 -1°C° 0.1 mm 6 m/s 749 mmHg 86%
    14:00 -1°C° 0.1 mm 6 m/s 749 mmHg 85%
    15:00 -1°C° 0.1 mm 5 m/s 749 mmHg 86%
    16:00 -1°C° 0.1 mm 5 m/s 750 mmHg 87%
    17:00 -2°C° 0.1 mm 4 m/s 750 mmHg 88%
    18:00 -2°C° 0.1 mm 4 m/s 750 mmHg 89%
    19:00 -2°C° 0.1 mm 4 m/s 750 mmHg 90%
    20:00 -2°C° 0.1 mm 4 m/s 750 mmHg 90%
    21:00 -3°C° 0.1 mm 4 m/s 751 mmHg 89%
    22:00 -4°C° 0.1 mm 5 m/s 751 mmHg 87%
    23:00 -4°C° 0.1 mm 5 m/s 751 mmHg 86%
    Voir plus